Terminal Aerodrome Forecast
Issued by NWS

Home | Current Version | Previous Version | Text Only | Print | Product List | Glossary On
Versions: 1 2 3 4 5 6 7 8 9 10 11 12 13 14 15 16 17 18 19 20 21 22 23 24 25 26 27 28 29 30 31 32 33 34 35 36 37 38 39 40 41 42 43 44 45 46 47 48 49 50
000
FTUS41 KOKX 151934 AAA
TAFSWF
TAF AMD
KSWF 151934Z 1520/1624 24012G22KT P6SM SCT100 BKN200
     FM152300 23010KT P6SM BKN100
     FM160600 25006KT P6SM BKN080
     FM161300 23006KT P6SM -SHRA BKN050
     FM161600 23011KT 5SM -SHRA BR BKN035
     FM162100 29006KT P6SM FEW012 BKN040
     AMD NOT SKED=

USA.gov is the U.S. government's official web portal to all federal, state and local government web resources and services.